SL-8 DEB, 3038

Orbit data source: Space-Track

SL-8 DEB, 3038 is space debris in LEO originally from a launch on Mon, 15 Mar 1965 UTC launched from the Tyuratam Missile And Space Complex (TTMTR). Debris objects in space refer to the collection of defunct objects orbiting the Earth. Examples of debris include non-operational satellites, rocket bodies, and fragments generated from explosions, collisions, or faulty payload assembly.

Loading next visibility...
Identifier
3038, 1965-020EN
Orbit
LEO
Country
Flag of CISCIS
Related business
Manufacturer
Unknown
Mission
Spacecraft
Bus & Motor
Unknown
Mass
Unknown
Launch date (UTC)
1965-03-15 (61 years ago)
Launch vehicle
Unknown
Launch site
Tyuratam Missile And Space Complex (TTMTR)
Object type
Payload
Rocket body
Debris
Shape & HBR
Unknown shape, 0.1 m
Radar Cross Section
Medium (>0.1 m² and <1 m²)

Expand to show TLE details & history
Last TLE update: 8 hours ago

TLE from 8 hours ago
0 SL-8 DEB
1  3038U 65020EN  25300.47272817  .00008583  00000-0  18783-2 0  9998
2  3038  56.1659  99.9088 0402090  91.8631 272.8444 14.18439291192740
Epoch: 2025-10-27T11:20Z
TLE epoch observation values (Epoch: 2025-10-27T11:20:43.713Z)
Latitude
-0.00004°
Longitude
-106.34744°
Altitude
829.061 km
Speed
7.441 km/s
True Right ascension
06h 39m 38s
True Declination
0° 00' 00"
Sunlit
Object was in daylight at epoch
Visualization orbit readout
Latitude
Unknown
Longitude
Unknown
Altitude
Unknown
Speed
Unknown
Apparent Right ascension
Unknown
Apparent Declination
Unknown
Sunlit
N/A
Visualization observer readout
Local Sidereal Time
14:33:34
Azimuth
Unknown
Elevation
Unknown
Doppler factor
Unknown
Orbital elements
Apogee altitude
1,120.275 km
Perigee altitude
540.577 km
Semi-major axis
7,208.563 km
Eccentricity
0.04021
Inclination
56.1659°
RAAN
99.9088°
Arg. of periapsis
91.8631°
True anomaly
268.23593°
Mean anomaly
272.8444°
Eccentric anomaly
270.5407°
Mean motion
3.54626 °/min
Orbital period
101.52 mins
BSTAR
0.0018783
Loading maneuver chart data...
Computing Atmospheric mass density...

Documentation

Showing up to 5 results
|